Location: Angwan Shehu
(11.2514°N, 7.4613°E)
Time: 15:14:29
(UTC+00:00)

Vanguard 1 Rocket - All Passes

Search period start: 23 April 2021 00:00
Search period end: 03 May 2021 00:00
Orbit: 653 x 4224 km, 34.3° (Epoch: 22 April)

Date Brightness Start Highest point End Pass type
(mag) Time Alt. Az. Time Alt. Az. Time Alt. Az.
23 Apr - 03:49:12 10° S 03:58:51 13° SSE 04:07:33 10° SE visible
23 Apr - 06:16:35 10° SSW 06:35:38 33° SSE 06:47:17 10° E daylight
23 Apr - 08:48:27 10° SW 09:05:50 87° SE 09:14:15 10° ENE daylight
23 Apr - 11:24:37 10° W 11:32:04 23° NW 11:36:59 10° NNE daylight
23 Apr - 16:25:35 10° N 16:27:55 13° NNE 16:30:35 10° ENE daylight
23 Apr - 18:47:23 10° WNW 18:53:05 87° SSW 19:03:47 10° SE visible
23 Apr - 21:13:49 10° WSW 21:21:12 25° SSW 21:33:06 10° SSE visible
24 Apr - 05:02:33 10° SSW 05:20:20 24° SSE 05:33:05 10° ESE daylight
24 Apr - 07:32:56 10° SW 07:53:01 60° SSE 08:03:19 10° ENE daylight
24 Apr - 10:07:43 10° WSW 10:20:35 44° NW 10:27:28 10° NE daylight
24 Apr - 17:37:18 10° NW 17:42:03 46° NE 17:49:39 10° ESE daylight
24 Apr - 20:01:47 10° W 20:08:15 36° SSW 20:19:43 10° SSE visible
24 Apr - 22:34:20 10° SW 22:39:33 13° SSW 22:45:55 10° S night (unlit)
25 Apr - 03:49:27 10° S 04:03:40 17° SSE 04:15:44 10° ESE visible
25 Apr - 06:17:56 10° SSW 06:39:07 43° SSE 06:51:25 10° E daylight
25 Apr - 08:51:06 10° WSW 09:08:45 75° NW 09:17:22 10° NE daylight
25 Apr - 11:29:08 10° WNW 11:35:16 18° NNW 11:39:39 10° NNE daylight
25 Apr - 16:27:46 10° NNW 16:31:09 19° NNE 16:35:16 10° E daylight
25 Apr - 18:50:43 10° WNW 18:56:15 59° SSW 19:06:19 10° SE visible
25 Apr - 21:18:56 10° WSW 21:25:05 17° SSW 21:33:46 10° SSE visible
26 Apr - 02:38:46 10° S 02:45:28 11° SSE 02:52:01 10° SSE visible
26 Apr - 05:03:39 10° SSW 05:24:07 31° SSE 05:38:04 10° E daylight
26 Apr - 07:34:58 10° SW 07:56:05 76° SE 08:06:40 10° ENE daylight
26 Apr - 10:11:28 10° W 10:23:31 35° NW 10:30:20 10° NNE daylight
26 Apr - 17:40:16 10° NW 17:45:04 71° NE 17:52:55 10° ESE daylight
26 Apr - 20:05:58 10° WSW 20:11:50 25° SSW 20:21:12 10° SSE visible
27 Apr - 03:50:16 10° SSW 04:07:58 22° SSE 04:22:17 10° ESE visible
27 Apr - 06:19:33 10° SW 06:42:23 55° SSE 06:55:09 10° ENE daylight
27 Apr - 08:54:06 10° WSW 09:11:36 59° NW 09:20:23 10° NE daylight
27 Apr - 11:33:56 10° WNW 11:38:39 15° NNW 11:42:17 10° N daylight
27 Apr - 16:30:20 10° NNW 16:34:16 29° NE 16:39:21 10° E daylight
27 Apr - 18:54:18 10° W 18:59:35 38° SSW 19:08:31 10° SE visible
27 Apr - 21:26:01 10° SSW 21:29:09 11° SSW 21:32:48 10° S visible
28 Apr - 02:38:26 10° S 02:50:32 15° SSE 03:02:02 10° SE visible
28 Apr - 05:04:59 10° SSW 05:27:36 40° SSE 05:42:26 10° E daylight
28 Apr - 07:37:19 10° SW 07:58:59 88° NW 08:09:51 10° NE daylight
28 Apr - 10:15:34 10° W 10:26:35 28° NNW 10:33:11 10° NNE daylight
28 Apr - 15:21:05 10° N 15:23:06 13° NNE 15:25:11 10° NE daylight
28 Apr - 17:43:27 10° WNW 17:48:11 73° SSW 17:55:49 10° SE daylight
28 Apr - 20:10:57 10° WSW 20:15:36 16° SSW 20:21:59 10° SSE visible
29 Apr - 03:51:24 10° SSW 04:11:49 28° SSE 04:27:46 10° E visible
29 Apr - 06:21:25 10° SW 06:45:25 68° SE 06:58:37 10° ENE daylight
29 Apr - 08:57:28 10° WSW 09:14:27 48° NW 09:23:18 10° NE daylight
29 Apr - 11:38:51 10° NW 11:42:13 12° NNW 11:45:00 10° N daylight
29 Apr - 16:33:06 10° NW 16:37:22 47° NE 16:42:59 10° ESE daylight
29 Apr - 18:58:20 10° W 19:03:05 25° SSW 19:10:17 10° SSE visible
30 Apr - 02:39:07 10° S 02:55:02 19° SSE 03:09:42 10° ESE visible
30 Apr - 05:06:31 10° SW 05:30:48 50° SE 05:46:20 10° ENE daylight
30 Apr - 07:39:59 10° WSW 08:01:48 73° NW 08:12:53 10° NE daylight
30 Apr - 10:19:57 10° WNW 10:29:48 23° NNW 10:36:04 10° NNE daylight
30 Apr - 15:23:09 10° NNW 15:26:26 20° NNE 15:29:52 10° ENE daylight
30 Apr - 17:46:53 10° WNW 17:51:25 44° SSW 17:58:20 10° SE daylight
01 May - 01:30:03 10° S 01:37:11 12° SSE 01:44:30 10° SE visible
01 May - 03:52:44 10° SSW 04:15:17 36° SE 04:32:29 10° E visible
01 May - 06:23:32 10° SW 06:48:16 82° SE 07:01:51 10° ENE daylight
01 May - 09:01:11 10° W 09:17:22 39° NW 09:26:13 10° NE daylight
01 May - 11:43:37 10° NNW 11:45:56 11° NNW 11:48:00 10° N daylight
01 May - 14:14:07 10° N 14:14:49 10° NNE 14:15:29 10° NNE daylight
01 May - 16:36:05 10° NW 16:40:27 82° NE 16:46:14 10° ESE daylight
01 May - 19:03:10 10° WSW 19:06:42 15° SSW 19:11:19 10° S visible
02 May - 02:40:12 10° SSW 02:58:58 25° SSE 03:15:57 10° E visible
02 May - 05:08:18 10° SW 05:33:46 61° SE 05:49:54 10° ENE daylight
02 May - 07:42:59 10° WSW 08:04:34 61° NW 08:15:52 10° NE daylight
02 May - 10:24:31 10° WNW 10:33:14 20° NNW 10:39:04 10° NNE daylight
02 May - 15:25:39 10° NNW 15:29:40 31° NNE 15:33:53 10° E daylight
02 May - 17:50:43 10° W 17:54:46 26° SSW 18:00:26 10° SSE daylight
